Hourly Weather Mérida

Today, 11 July, Saturday

Time Temperature Precipitation Wind Pressure Humidity
00:00 +14°C° 0.1 mm 2 mps 592 mmHg 93%
01:00 +14°C° 0.1 mm 2 mps 592 mmHg 92%
02:00 +14°C° 0 mm 2 mps 592 mmHg 92%
03:00 +14°C° 0 mm 2 mps 592 mmHg 91%
04:00 +13°C° 0 mm 2 mps 592 mmHg 91%
05:00 +14°C° 0 mm 2 mps 592 mmHg 88%
06:00 +15°C° 0 mm 1 mps 593 mmHg 85%
07:00 +16°C° 0 mm 1 mps 594 mmHg 83%
08:00 +19°C° 0.1 mm 1 mps 595 mmHg 79%
09:00 +19°C° 0.1 mm 2 mps 595 mmHg 75%
10:00 +20°C° 0.1 mm 2 mps 596 mmHg 71%
11:00 +20°C° 0.8 mm 2 mps 595 mmHg 76%
12:00 +21°C° 0.8 mm 1 mps 595 mmHg 81%
13:00 +20°C° 0.8 mm 1 mps 594 mmHg 85%
14:00 +20°C° 1.1 mm 1 mps 594 mmHg 85%
15:00 +20°C° 1.1 mm 1 mps 593 mmHg 86%
16:00 +20°C° 1.1 mm 1 mps 592 mmHg 86%
17:00 +19°C° 0.8 mm 1 mps 592 mmHg 89%
18:00 +18°C° 0.8 mm 1 mps 592 mmHg 92%
19:00 +15°C° 0.8 mm 0 mps 592 mmHg 96%
20:00 +16°C° 0.3 mm 1 mps 593 mmHg 95%
21:00 +15°C° 0.3 mm 1 mps 593 mmHg 94%
22:00 +15°C° 0.3 mm 1 mps 593 mmHg 94%
23:00 +15°C° 0.1 mm 1 mps 593 mmHg 93%

Tomorrow, 12 July, Sunday

Time Temperature Precipitation Wind Pressure Humidity
00:00 +15°C° 0.1 mm 1 mps 593 mmHg 93%
01:00 +15°C° 0.1 mm 1 mps 592 mmHg 93%
02:00 +15°C° 0.6 mm 1 mps 592 mmHg 93%
03:00 +15°C° 0.6 mm 1 mps 592 mmHg 93%
04:00 +15°C° 0.6 mm 1 mps 592 mmHg 93%
05:00 +15°C° 2.1 mm 1 mps 593 mmHg 94%
06:00 +15°C° 2.1 mm 1 mps 593 mmHg 94%
07:00 +15°C° 2.1 mm 1 mps 593 mmHg 95%
08:00 +16°C° 0.6 mm 1 mps 594 mmHg 93%
09:00 +16°C° 0.6 mm 1 mps 594 mmHg 92%
10:00 +18°C° 0.6 mm 1 mps 595 mmHg 90%
11:00 +18°C° 0.5 mm 1 mps 594 mmHg 89%
12:00 +19°C° 0.5 mm 1 mps 594 mmHg 88%
13:00 +19°C° 0.5 mm 1 mps 594 mmHg 87%
14:00 +18°C° 3.4 mm 1 mps 593 mmHg 90%
15:00 +18°C° 3.4 mm 1 mps 592 mmHg 93%
16:00 +16°C° 3.4 mm 1 mps 591 mmHg 96%
17:00 +16°C° 1.3 mm 2 mps 592 mmHg 94%
18:00 +16°C° 1.3 mm 2 mps 592 mmHg 93%
19:00 +15°C° 1.3 mm 2 mps 592 mmHg 91%
20:00 +15°C° 0 mm 2 mps 593 mmHg 90%
21:00 +15°C° 0 mm 2 mps 593 mmHg 89%
22:00 +14°C° 0 mm 2 mps 593 mmHg 88%
23:00 +14°C° 0 mm 2 mps 593 mmHg 88%

Day after tomorrow, 13 July, Monday

Time Temperature Precipitation Wind Pressure Humidity
00:00 +14°C° 0 mm 2 mps 592 mmHg 87%
01:00 +14°C° 0 mm 2 mps 592 mmHg 87%
02:00 +14°C° 0 mm 2 mps 592 mmHg 87%
03:00 +14°C° 0 mm 2 mps 592 mmHg 87%
04:00 +14°C° 0 mm 2 mps 592 mmHg 87%
05:00 +15°C° 0 mm 2 mps 593 mmHg 85%
06:00 +16°C° 0 mm 2 mps 594 mmHg 83%
07:00 +16°C° 0 mm 2 mps 594 mmHg 82%
08:00 +17°C° 0.1 mm 2 mps 595 mmHg 79%
09:00 +19°C° 0.1 mm 2 mps 596 mmHg 76%
10:00 +20°C° 0.1 mm 2 mps 596 mmHg 74%
11:00 +19°C° 1.1 mm 2 mps 596 mmHg 80%
12:00 +18°C° 1.1 mm 2 mps 595 mmHg 85%
13:00 +18°C° 1.1 mm 1 mps 594 mmHg 91%
14:00 +17°C° 0.8 mm 2 mps 594 mmHg 90%
15:00 +17°C° 0.8 mm 2 mps 593 mmHg 89%
16:00 +17°C° 0.8 mm 2 mps 593 mmHg 88%
17:00 +16°C° 0.2 mm 2 mps 593 mmHg 89%
18:00 +16°C° 0.2 mm 2 mps 593 mmHg 91%
19:00 +15°C° 0.2 mm 2 mps 593 mmHg 92%
20:00 +15°C° 0.2 mm 2 mps 593 mmHg 92%
21:00 +15°C° 0.2 mm 2 mps 593 mmHg 91%
22:00 +15°C° 0.2 mm 2 mps 594 mmHg 91%
23:00 +15°C° 0.3 mm 2 mps 593 mmHg 91%

14 July, Tuesday

Time Temperature Precipitation Wind Pressure Humidity
00:00 +15°C° 0.3 mm 2 mps 593 mmHg 91%
01:00 +15°C° 0.3 mm 2 mps 593 mmHg 90%
02:00 +15°C° 0.4 mm 2 mps 593 mmHg 91%
03:00 +15°C° 0.4 mm 2 mps 593 mmHg 91%
04:00 +15°C° 0.4 mm 2 mps 593 mmHg 91%
05:00 +15°C° 0.1 mm 2 mps 593 mmHg 88%
06:00 +15°C° 0.1 mm 2 mps 593 mmHg 85%
07:00 +16°C° 0.1 mm 2 mps 594 mmHg 83%
08:00 +17°C° 0 mm 2 mps 594 mmHg 79%
09:00 +18°C° 0 mm 2 mps 595 mmHg 75%
10:00 +19°C° 0 mm 2 mps 596 mmHg 71%
11:00 +19°C° 0.4 mm 2 mps 595 mmHg 72%
12:00 +19°C° 0.4 mm 2 mps 595 mmHg 73%
13:00 +19°C° 0.4 mm 2 mps 594 mmHg 75%
14:00 +19°C° 1.1 mm 2 mps 594 mmHg 77%
15:00 +18°C° 1.1 mm 2 mps 594 mmHg 79%
16:00 +19°C° 1.1 mm 1 mps 593 mmHg 81%
17:00 +17°C° 0.3 mm 2 mps 593 mmHg 83%
18:00 +16°C° 0.3 mm 2 mps 593 mmHg 85%
19:00 +14°C° 0.3 mm 2 mps 592 mmHg 87%
20:00 +14°C° 0 mm 2 mps 592 mmHg 84%
21:00 +14°C° 0 mm 2 mps 593 mmHg 81%
22:00 +12°C° 0 mm 3 mps 593 mmHg 77%
23:00 +12°C° 0 mm 3 mps 592 mmHg 77%

15 July, Wednesday

Time Temperature Precipitation Wind Pressure Humidity
00:00 +13°C° 0 mm 2 mps 592 mmHg 76%
01:00 +13°C° 0 mm 2 mps 592 mmHg 75%
02:00 +13°C° 0 mm 2 mps 592 mmHg 77%
03:00 +13°C° 0 mm 2 mps 592 mmHg 78%
04:00 +13°C° 0 mm 2 mps 591 mmHg 80%
05:00 +14°C° 0 mm 2 mps 592 mmHg 77%
06:00 +15°C° 0 mm 2 mps 593 mmHg 75%
07:00 +16°C° 0 mm 2 mps 594 mmHg 72%
08:00 +18°C° 0 mm 2 mps 595 mmHg 68%
09:00 +19°C° 0 mm 2 mps 595 mmHg 64%
10:00 +20°C° 0 mm 2 mps 596 mmHg 60%
11:00 +20°C° 0.3 mm 2 mps 595 mmHg 66%
12:00 +20°C° 0.3 mm 2 mps 595 mmHg 72%
13:00 +20°C° 0.3 mm 2 mps 594 mmHg 78%
14:00 +20°C° 1 mm 1 mps 593 mmHg 82%
15:00 +19°C° 1 mm 1 mps 593 mmHg 86%
16:00 +19°C° 1 mm 1 mps 592 mmHg 91%
17:00 +18°C° 0.8 mm 1 mps 592 mmHg 92%
18:00 +18°C° 0.8 mm 1 mps 592 mmHg 94%
19:00 +16°C° 0.8 mm 1 mps 592 mmHg 95%
20:00 +15°C° 0.3 mm 1 mps 592 mmHg 94%
21:00 +15°C° 0.3 mm 1 mps 592 mmHg 92%
22:00 +14°C° 0.3 mm 1 mps 593 mmHg 91%
23:00 +14°C° 0.1 mm 1 mps 592 mmHg 90%

16 July, Thursday

Time Temperature Precipitation Wind Pressure Humidity
00:00 +14°C° 0.1 mm 1 mps 592 mmHg 90%
01:00 +13°C° 0.1 mm 1 mps 592 mmHg 89%
02:00 +13°C° 0 mm 2 mps 591 mmHg 89%
03:00 +13°C° 0 mm 2 mps 591 mmHg 88%
04:00 +13°C° 0 mm 2 mps 591 mmHg 88%
05:00 +14°C° 0 mm 2 mps 592 mmHg 87%
06:00 +15°C° 0 mm 1 mps 593 mmHg 86%
07:00 +16°C° 0 mm 1 mps 594 mmHg 85%
08:00 +18°C° 0.1 mm 1 mps 594 mmHg 83%
09:00 +19°C° 0.1 mm 1 mps 595 mmHg 80%
10:00 +19°C° 0.1 mm 2 mps 595 mmHg 78%
11:00 +20°C° 1 mm 1 mps 595 mmHg 81%
12:00 +20°C° 1 mm 1 mps 594 mmHg 84%
13:00 +20°C° 1 mm 1 mps 594 mmHg 88%
14:00 +20°C° 1.1 mm 1 mps 593 mmHg 88%
15:00 +20°C° 1.1 mm 1 mps 593 mmHg 87%
16:00 +20°C° 1.1 mm 1 mps 593 mmHg 87%
17:00 +19°C° 1 mm 1 mps 593 mmHg 90%
18:00 +18°C° 1 mm 1 mps 593 mmHg 93%
19:00 +16°C° 1 mm 1 mps 592 mmHg 96%
20:00 +16°C° 0.9 mm 1 mps 593 mmHg 95%
21:00 +16°C° 1 mm 1 mps 593 mmHg 95%
22:00 +16°C° 1 mm 1 mps 593 mmHg 95%
23:00 +16°C° 0.5 mm 1 mps 593 mmHg 94%
Show more